Location: Avebury
(53.1487°N, 106.9774°W)
Time: 14:45:37
(UTC+00:00)

Envisat - Pass Details

Date: 24 January 2022
Orbit: 764 x 765 km, 98.2° (Epoch: 22 May)

Event Time Altitude Azimuth Distance (km) Brightness Sun altitude
Rises 13:49:30 0° 7° (N) 3,245 6.1 -10.9°
Reaches altitude 10° 13:52:16 10° 353° (N) 2,314 5.2 -10.5°
Maximum altitude 13:56:03 22° 304° (NW) 1,647 4.2 -10.0°
Drops below altitude 10° 13:59:50 10° 256° (WSW) 2,304 5.0 -9.4°
Sets 14:02:36 0° 241° (WSW) 3,227 5.8 -9.1°
